Air Sicilia Virtual Airways - Route

Air Sicilia Virtual Airways - SIC029A

( IT ) LIEE - 00:00
Cagliari Elmas Airport
CAGLIARI ( CAG )
plane_to ( IT ) LIRQ - 00:00
Peretola Airport
FIRENZE ( FLR )

AIRPORT NEAR NAVIGATION AIDS

Type Name Frequency
VOR-DME Cagliari 113400 KHZ
NDB Cagliari 371 KHZ

METAR / TAF
LIEE 191320Z 09013KT 060V140 9999 TS VCSH FEW035 SCT040CB 26/19 Q1015
LIEE 191100Z 1912/2012 15012KT 9999 SCT030 TEMPO 1912/1918 4000 TSRA BECMG 1916/1918 VRB05KT BECMG 2009/2011 15010KT

RUNWAY INFORMATION

Runway Runway length Runway width Runway elevation Runway displaced threshold Runway heading
14 9196 148 9 0 138
32 9196 148 4 0 318

AIRPORT FREQUENCIES

Type Name Frequency
APP CAGLIARI A 118.75 MHZ
GND Elmas GND 125.425 MHZ
MISC SAR 123.1 MHZ
TWR TWR 120.6 MHZ

AIRPORT NEAR NAVIGATION AIDS

Type Name Frequency
VOR-DME Peretola 112500 KHZ

METAR / TAF
LIRQ 191320Z 03013KT 9999 FEW030 33/16 Q1014
LIRQ 191100Z 1912/2012 05010KT 9999 SCT050

RUNWAY INFORMATION

Runway Runway length Runway width Runway elevation Runway displaced threshold Runway heading
05 5425 98 123 492 48
23 5425 98 132 2287 228

AIRPORT FREQUENCIES

Type Name Frequency
APP APP 126.075 MHZ
ATIS ATIS 129.35 MHZ
TWR FIRENZE TW 118.3 MHZ

Flightplan

VFR

Air Sicilia Virtual Airways Fleets

AVAILABLE AIRCRAFTS for route at this time in Cagliari Elmas Airport

At this time no aircraft Air Sicilia Virtual Airways is available at Cagliari Elmas Airport
Only Charter flights.

290.561 NM

Distance in nautical miles.

€ 268,00

Ticket price for this flight.

0 h.

Estimated flight time.



07-08-2018
Aerosoft Professional Flight Planner PFPX

PFPX - Professional Flight Planner X - è un nuovo ed innovativo strumento di pianificazione del volo sviluppato da piloti e dispatcher del mondo reale. È un'aggiunta preziosa e realistica alla tua esperienza di simulaz ....


19-07-2018
Aerosoft Oslo X

L'Aeroporto di Oslo-Gardermoen (IATA: OSL, ICAO: ENGM) è il principale aeroporto norvegese e il 19° in Europa, è situato vicino alla cittadina di Ullensaker nella contea di Akershus e serve la capitale Oslo. Ha sostit ....


21-06-2018
Aerosoft Malpensa Professional P3Dv4

L'Aeroporto di Milano-Malpensa (IATA: MXP, ICAO: LIMC) è un aeroporto italiano situato nella provincia di Varese in Lombardia, ma considerato come il principale aeroporto di Milano.

È il secondo aeroporto ital ....


06-06-2018
1° Raduno Air Sicilia Virtual - parla il C.E.O.

Grande successo per il 1° Raduno di Compagnia dell'Air Sicilia Virtual, che ha visto i membri della Crew presenti il 4 giugno 2018 a Thiene ( VI ) , cimentarsi dal vivo con le reali ....


24-05-2018
Aerosoft Airport Rome XP

Tra le nostre recensioni non poteva mancare certo la nuova uscita Aerosoft per X-Plane, stiamo parlando di Airport Rome XP, finalmente un Add-on pay completo dell'Aeroporto di Roma Fiumicino per gli utilizzatori del simu ....